Change the Weather History Date:

Tuesday, March 11, 2014

  Actual Average Record
Temperature  
Mean Temperature 68 °F -  
Max Temperature 81 °F 63 °F 93 °F (1967)
Min Temperature 54 °F 43 °F 21 °F (1992)
Cooling Degree Days 3    
Growing Degree Days 18 (Base 50)    
Moisture  
Dew Point 48 °F    
Average Humidity 54    
Maximum Humidity 84    
Minimum Humidity 33    
Precipitation  
Precipitation 0.00 in - - ()
Sea Level Pressure  
Sea Level Pressure 29.63 in    
Wind  
Wind Speed 12 mph (SSW)    
Max Wind Speed 20 mph    
Max Gust Speed 32 mph    
Visibility 10 miles    
Events      
Averages and records for this station are not official NWS values.
T = Trace of Precipitation, MM = Missing Value Source: NWS Daily Summary

Daily Weather History Graph

Daily Weather History Graph

Search for Another Location

Airport or City:

Trip Planner

Search our weather history database for the weather conditions in past years. The results will help you decide how hot, cold, wet, or windy it might be!

Date:

Astronomy

Mar. 11, 2014 Rise Set
Actual Time 7:39 AM CDT 7:27 PM CDT
Civil Twilight 7:13 AM CDT 7:52 PM CDT
Nautical Twilight 6:44 AM CDT 8:22 PM CDT
Astronomical Twilight 6:15 AM CDT 8:51 PM CDT
Moon 3:12 PM CDT (3/11) 4:24 AM CDT (3/11)
Length of Visible Light 12h 38m
Length of Day
11h 48m
Waxing Gibbous, 78% of the Moon is Illuminated
Mar 11
Waxing Gibbous
Mar 16
Full
Mar 23
Last Quarter
Mar 30
New
Apr 7
First Quarter

Hourly Weather History & Observations

Time (CDT) Temp. Dew Point Humidity Pressure Visibility Wind Dir Wind Speed Gust Speed Precip Events Conditions
12:53 AM 62.1 °F 46.0 °F 56% 29.78 in 10.0 mi South 9.2 mph - N/A   Scattered Clouds
1:53 AM 62.1 °F 48.9 °F 62% 29.76 in 10.0 mi South 10.4 mph - N/A   Mostly Cloudy
2:53 AM 61.0 °F 51.1 °F 70% 29.73 in 10.0 mi South 9.2 mph - N/A   Mostly Cloudy
3:53 AM 60.1 °F 52.0 °F 75% 29.71 in 10.0 mi South 9.2 mph 17.3 mph N/A   Mostly Cloudy
4:53 AM 60.1 °F 52.0 °F 75% 29.69 in 10.0 mi South 9.2 mph - N/A   Partly Cloudy
5:53 AM 57.9 °F 51.1 °F 78% 29.68 in 10.0 mi South 6.9 mph - N/A   Clear
6:53 AM 57.0 °F 51.1 °F 81% 29.68 in 10.0 mi South 9.2 mph - N/A   Scattered Clouds
7:53 AM 55.9 °F 51.1 °F 84% 29.66 in 10.0 mi South 6.9 mph - N/A   Partly Cloudy
8:53 AM 59.0 °F 52.0 °F 78% 29.65 in 10.0 mi South 8.1 mph - N/A   Partly Cloudy
9:53 AM 63.0 °F 53.1 °F 70% 29.62 in 10.0 mi South 11.5 mph 21.9 mph N/A   Scattered Clouds
10:53 AM 66.9 °F 52.0 °F 59% 29.61 in 10.0 mi South 15.0 mph 24.2 mph N/A   Partly Cloudy
11:53 AM 71.1 °F 52.0 °F 51% 29.60 in 10.0 mi South 13.8 mph 28.8 mph N/A   Partly Cloudy
12:53 PM 75.0 °F 52.0 °F 44% 29.56 in 10.0 mi SSW 15.0 mph 26.5 mph N/A   Clear
1:53 PM 77.0 °F 52.0 °F 42% 29.52 in 10.0 mi South 16.1 mph 26.5 mph N/A   Clear
2:53 PM 79.0 °F 50.0 °F 36% 29.47 in 10.0 mi South 12.7 mph 26.5 mph N/A   Clear
3:53 PM 81.0 °F 48.9 °F 33% 29.46 in 10.0 mi SSW 19.6 mph 25.3 mph N/A   Clear
4:53 PM 81.0 °F 48.9 °F 33% 29.46 in 10.0 mi SSW 15.0 mph 27.6 mph N/A   Clear
5:53 PM 79.0 °F 48.9 °F 35% 29.48 in 10.0 mi SSW 19.6 mph 27.6 mph N/A   Clear
6:53 PM 75.9 °F 50.0 °F 40% 29.50 in 10.0 mi SSW 12.7 mph 20.7 mph N/A   Clear
7:53 PM 73.0 °F 50.0 °F 44% 29.53 in 10.0 mi SSW 6.9 mph - N/A   Partly Cloudy
8:19 PM 68.0 °F 37.4 °F 33% 29.62 in 10.0 mi NW 19.6 mph 27.6 mph N/A   Scattered Clouds
8:53 PM 64.9 °F 37.0 °F 36% 29.65 in 10.0 mi NW 17.3 mph 24.2 mph N/A   Mostly Cloudy
9:53 PM 60.1 °F 34.0 °F 38% 29.71 in 10.0 mi NNW 19.6 mph 26.5 mph N/A   Scattered Clouds
10:53 PM 57.0 °F 35.1 °F 44% 29.77 in 10.0 mi NW 12.7 mph 19.6 mph N/A   Mostly Cloudy
11:53 PM 54.0 °F 35.1 °F 49% 29.83 in 10.0 mi NNW 18.4 mph 32.2 mph N/A   Partly Cloudy